Home   Weather   Las Palmas   Past weeks

Flag for Spain Past Weather in Las Palmas, Canary Islands, Spain — Yesterday and Last 2 Weeks

Now
73 °F

Passing clouds.


Feels Like: 75 °F
Forecast: 71 / 78 °F
Wind: 17 mph from North

Location: Las Palmas De Gran Canaria / Gando

Current Time: Sep 29, 2016 at 11:11:34 PM

Latest Report: Sep 29, 2016 at 10:30 PM


Visibility: 6 mi

Pressure: 29.98 "Hg

Humidity: 74%

Dew Point: 64 °F

Location of Las PalmasLocation

Past Weather in Las Palmas — Graph

°F

Las Palmas Temperature Yesterday

Maximum temperature yesterday: 81 °F (at 12:00 PM)
Minimum temperature yesterday: 72 °F (at 4:30 AM)
Average temperature yesterday: 76 °F

High & Low Weather Summary for the Past Weeks

 TemperatureHumidityPressure
High81 °F (Sep 16, 1:30 PM)83% (Sep 19, 3:00 AM)30.21 "Hg (Sep 19, 3:00 AM)
Low70 °F (Sep 20, 8:00 AM)34% (Sep 28, 2:00 AM)29.92 "Hg (Sep 29, 4:30 PM)
Average75 °F65%30.09 "Hg
* Reported Sep 14 10:00 PM — Sep 29 10:00 PM, Las Palmas, Weather by CustomWeather, © 2016

Note: Actual official high and low records may vary slightly from our data, if they occured in-between our weather recording intervals... More about our weather records

Advertising

Las Palmas Weather History for the Previous 24 Hours

Scroll right to see more
 ConditionsComfort  
Time TempWeatherWind HumidityBarometerVisibility
10:00 PM
Thu, Sep 29
73 °FPassing clouds.15 mph74%29.98 "Hg6 mi
9:30 PM73 °FPassing clouds.15 mph69%29.98 "Hg5 mi
9:00 PM75 °FPassing clouds.15 mph69%29.98 "Hg5 mi
8:30 PM75 °FPassing clouds.18 mph69%29.95 "Hg5 mi
8:00 PM75 °FPassing clouds.17 mph69%29.95 "HgN/A
7:30 PM75 °FPassing clouds.18 mph69%29.95 "HgN/A
7:00 PM77 °FPassing clouds.23 mph69%29.92 "HgN/A
6:30 PM77 °FPassing clouds.26 mph65%29.92 "HgN/A
6:00 PM77 °FPassing clouds.25 mph65%29.92 "Hg6 mi
5:30 PM79 °FPassing clouds.24 mph65%29.92 "Hg6 mi
5:00 PM79 °FPassing clouds.24 mph65%29.92 "Hg6 mi
4:30 PM79 °FPassing clouds.26 mph65%29.92 "Hg6 mi
4:00 PM79 °FPassing clouds.25 mph65%29.95 "Hg6 mi
3:30 PM79 °FPassing clouds.28 mph65%29.95 "Hg6 mi
3:00 PM79 °FPassing clouds.26 mph70%29.95 "Hg6 mi
2:30 PM79 °FPassing clouds.25 mph70%29.95 "Hg6 mi
2:00 PM81 °FPassing clouds.24 mph66%29.98 "Hg6 mi
1:30 PM81 °FPassing clouds.24 mph66%29.98 "Hg6 mi
1:00 PM81 °FPassing clouds.23 mph62%29.98 "Hg6 mi
12:30 PM81 °FPassing clouds.20 mph62%30.01 "Hg6 mi
12:00 PM79 °FPassing clouds.20 mph65%30.01 "Hg6 mi
11:30 AM79 °FPassing clouds.17 mph70%30.01 "Hg6 mi
11:00 AM79 °FPassing clouds.16 mph65%30.01 "Hg6 mi
10:30 AM77 °FPassing clouds.15 mph65%30.01 "Hg6 mi
10:00 AM77 °FPassing clouds.16 mph69%29.98 "Hg6 mi
9:30 AM75 °FScattered clouds.21 mph74%29.98 "Hg6 mi
9:00 AM73 °FScattered clouds.20 mph78%29.98 "Hg6 mi
8:30 AM73 °FScattered clouds.20 mph78%29.98 "Hg6 mi
8:00 AM73 °FScattered clouds.18 mph74%29.98 "Hg6 mi
7:30 AM73 °FPassing clouds.17 mph74%29.98 "Hg6 mi
7:00 AM73 °FPassing clouds.20 mph74%29.95 "Hg6 mi
6:30 AM73 °FPassing clouds.16 mph74%29.95 "Hg5 mi
6:00 AM73 °FPassing clouds.20 mph74%29.95 "Hg6 mi
5:30 AM73 °FPassing clouds.18 mph74%29.95 "HgN/A
5:00 AM73 °FPassing clouds.21 mph74%29.98 "HgN/A
4:30 AM73 °FPassing clouds.18 mph69%29.95 "HgN/A
4:00 AM75 °FPassing clouds.17 mph65%29.98 "HgN/A
3:30 AM75 °FPassing clouds.17 mph65%29.98 "HgN/A
3:00 AM75 °FPassing clouds.18 mph69%29.98 "HgN/A
2:30 AM75 °FPassing clouds.21 mph69%29.98 "HgN/A
2:00 AM73 °FPassing clouds.21 mph69%29.98 "HgN/A
1:30 AM75 °FPassing clouds.23 mph65%29.98 "HgN/A
1:00 AM73 °FPassing clouds.24 mph69%29.98 "HgN/A
12:30 AM75 °FPassing clouds.26 mph69%29.98 "HgN/A
12:00 AM75 °FPassing clouds.21 mph69%30.01 "HgN/A
11:30 PM
Wed, Sep 28
75 °FPassing clouds.21 mph69%30.01 "HgN/A
11:00 PM75 °FPassing clouds.20 mph69%30.01 "HgN/A
Weather by CustomWeather, © 2016

See weather overviewHow to use our weather pages